When you browse on this site, cookies collect data to enhance your experience and personalize the content and advertising you see.
Visit our Privacy Policy to learn more. By continuing to use the site, you agree to this use of cookies and data.
  • In Spain
  • List of Countries
  • For 7 days
  • Water Temperature
  • Satellite Maps
  • Weather Map
  • Weather Widgets
  • user-avatar
    Login

    Hourly Weather Fier

    Today, 12 December, Wednesday

    Time Temperature Precipitation Wind Pressure Humidity
    00:00 +3°C° 0 mm 3 mps 762 mmHg 65%
    01:00 +4°C° 0 mm 2 mps 762 mmHg 62%
    02:00 +4°C° 0 mm 2 mps 762 mmHg 60%
    03:00 +4°C° 0 mm 2 mps 762 mmHg 58%
    04:00 +4°C° 0 mm 2 mps 763 mmHg 56%
    05:00 +4°C° 0 mm 2 mps 763 mmHg 55%
    06:00 +4°C° 0 mm 2 mps 763 mmHg 53%
    07:00 +3°C° 0 mm 3 mps 763 mmHg 52%
    08:00 +5°C° 0 mm 2 mps 763 mmHg 46%
    09:00 +7°C° 0 mm 2 mps 763 mmHg 40%
    10:00 +8°C° 0 mm 2 mps 763 mmHg 34%
    11:00 +9°C° 0 mm 2 mps 763 mmHg 31%
    12:00 +10°C° 0 mm 1 mps 763 mmHg 29%
    13:00 +11°C° 0 mm 1 mps 763 mmHg 27%
    14:00 +10°C° 0 mm 1 mps 763 mmHg 31%
    15:00 +9°C° 0 mm 1 mps 763 mmHg 35%
    16:00 +8°C° 0 mm 1 mps 764 mmHg 39%
    17:00 +7°C° 0 mm 1 mps 764 mmHg 40%
    18:00 +5°C° 0 mm 2 mps 764 mmHg 40%
    19:00 +5°C° 0 mm 2 mps 764 mmHg 40%
    20:00 +5°C° 0 mm 2 mps 764 mmHg 41%
    21:00 +3°C° 0 mm 3 mps 764 mmHg 42%
    22:00 +3°C° 0 mm 3 mps 764 mmHg 43%
    23:00 +4°C° 0 mm 3 mps 764 mmHg 43%

    Tomorrow, 13 December, Thursday

    Time Temperature Precipitation Wind Pressure Humidity
    00:00 +4°C° 0 mm 3 mps 764 mmHg 43%
    01:00 +4°C° 0 mm 3 mps 764 mmHg 43%
    02:00 +4°C° 0 mm 3 mps 763 mmHg 43%
    03:00 +4°C° 0 mm 4 mps 763 mmHg 43%
    04:00 +5°C° 0 mm 4 mps 763 mmHg 43%
    05:00 +5°C° 0.1 mm 4 mps 763 mmHg 43%
    06:00 +5°C° 0.1 mm 3 mps 762 mmHg 44%
    07:00 +5°C° 0.1 mm 3 mps 762 mmHg 44%
    08:00 +6°C° 0.1 mm 4 mps 762 mmHg 47%
    09:00 +6°C° 0.1 mm 4 mps 762 mmHg 51%
    10:00 +7°C° 0.1 mm 4 mps 762 mmHg 54%
    11:00 +7°C° 0 mm 4 mps 761 mmHg 57%
    12:00 +7°C° 0 mm 4 mps 761 mmHg 59%
    13:00 +8°C° 0 mm 4 mps 760 mmHg 62%
    14:00 +7°C° 0 mm 4 mps 760 mmHg 65%
    15:00 +7°C° 0 mm 4 mps 760 mmHg 68%
    16:00 +6°C° 0 mm 4 mps 760 mmHg 70%
    17:00 +6°C° 0.1 mm 4 mps 760 mmHg 72%
    18:00 +6°C° 0.1 mm 5 mps 760 mmHg 73%
    19:00 +5°C° 0.1 mm 5 mps 760 mmHg 75%
    20:00 +5°C° 0.3 mm 5 mps 760 mmHg 76%
    21:00 +6°C° 0.3 mm 5 mps 760 mmHg 76%
    22:00 +5°C° 0.3 mm 6 mps 760 mmHg 77%
    23:00 +6°C° 0.3 mm 5 mps 760 mmHg 78%

    Day after tomorrow, 14 December, Friday

    Time Temperature Precipitation Wind Pressure Humidity
    00:00 +6°C° 0.3 mm 5 mps 760 mmHg 78%
    01:00 +6°C° 0.3 mm 5 mps 759 mmHg 79%
    02:00 +7°C° 0.2 mm 5 mps 759 mmHg 80%
    03:00 +7°C° 0.2 mm 5 mps 759 mmHg 82%
    04:00 +7°C° 0.2 mm 5 mps 759 mmHg 83%
    05:00 +7°C° 0.3 mm 5 mps 759 mmHg 84%
    06:00 +8°C° 0.3 mm 5 mps 759 mmHg 84%
    07:00 +8°C° 0.3 mm 5 mps 759 mmHg 85%
    08:00 +9°C° 0.1 mm 5 mps 759 mmHg 82%
    09:00 +11°C° 0.1 mm 6 mps 759 mmHg 80%
    10:00 +13°C° 0.1 mm 6 mps 759 mmHg 77%
    11:00 +14°C° 0.1 mm 6 mps 759 mmHg 74%
    12:00 +15°C° 0.1 mm 6 mps 758 mmHg 72%
    13:00 +16°C° 0.1 mm 7 mps 758 mmHg 70%
    14:00 +15°C° 0.2 mm 6 mps 758 mmHg 74%
    15:00 +14°C° 0.2 mm 6 mps 758 mmHg 78%
    16:00 +13°C° 0.2 mm 6 mps 758 mmHg 82%
    17:00 +11°C° 0.2 mm 6 mps 758 mmHg 82%
    18:00 +11°C° 0.2 mm 6 mps 758 mmHg 83%
    19:00 +10°C° 0.2 mm 6 mps 759 mmHg 84%
    20:00 +10°C° 0.2 mm 6 mps 759 mmHg 83%
    21:00 +9°C° 0.2 mm 6 mps 759 mmHg 81%
    22:00 +9°C° 0.2 mm 6 mps 759 mmHg 80%
    23:00 +9°C° 0 mm 6 mps 759 mmHg 79%

    15 December, Saturday

    Time Temperature Precipitation Wind Pressure Humidity
    00:00 +9°C° 0 mm 5 mps 758 mmHg 79%
    01:00 +9°C° 0 mm 5 mps 758 mmHg 78%
    02:00 +9°C° 0.1 mm 5 mps 758 mmHg 78%
    03:00 +9°C° 0.1 mm 5 mps 758 mmHg 78%
    04:00 +9°C° 0.1 mm 6 mps 757 mmHg 78%
    05:00 +9°C° 0.1 mm 6 mps 757 mmHg 78%
    06:00 +9°C° 0.1 mm 6 mps 758 mmHg 79%
    07:00 +9°C° 0.1 mm 6 mps 758 mmHg 79%
    08:00 +10°C° 0.4 mm 6 mps 758 mmHg 78%
    09:00 +11°C° 0.4 mm 6 mps 758 mmHg 76%
    10:00 +13°C° 0.4 mm 6 mps 758 mmHg 74%
    11:00 +13°C° 0.8 mm 6 mps 758 mmHg 74%
    12:00 +13°C° 0.8 mm 6 mps 757 mmHg 74%
    13:00 +14°C° 0.8 mm 6 mps 757 mmHg 74%
    14:00 +13°C° 0.7 mm 5 mps 757 mmHg 75%
    15:00 +13°C° 0.7 mm 5 mps 757 mmHg 77%
    16:00 +12°C° 0.7 mm 4 mps 757 mmHg 79%
    17:00 +12°C° 1.5 mm 4 mps 757 mmHg 79%
    18:00 +12°C° 1.5 mm 4 mps 757 mmHg 80%
    19:00 +11°C° 1.5 mm 4 mps 757 mmHg 80%
    20:00 +11°C° 2.1 mm 4 mps 757 mmHg 83%
    21:00 +11°C° 2.1 mm 4 mps 757 mmHg 86%
    22:00 +11°C° 2.1 mm 4 mps 758 mmHg 89%
    23:00 +10°C° 1.9 mm 4 mps 758 mmHg 90%

    16 December, Sunday

    Time Temperature Precipitation Wind Pressure Humidity
    00:00 +9°C° 1.9 mm 5 mps 758 mmHg 92%
    01:00 +9°C° 1.9 mm 5 mps 758 mmHg 94%
    02:00 +9°C° 1.5 mm 5 mps 758 mmHg 95%
    03:00 +10°C° 1.5 mm 4 mps 758 mmHg 95%
    04:00 +10°C° 1.5 mm 4 mps 758 mmHg 96%
    05:00 +10°C° 0.3 mm 4 mps 758 mmHg 96%
    06:00 +10°C° 0.3 mm 4 mps 758 mmHg 95%
    07:00 +8°C° 0.3 mm 4 mps 758 mmHg 95%
    08:00 +10°C° 0.1 mm 4 mps 759 mmHg 93%
    09:00 +10°C° 0.1 mm 4 mps 759 mmHg 90%
    10:00 +10°C° 0.1 mm 4 mps 759 mmHg 88%
    11:00 +11°C° 0.1 mm 4 mps 759 mmHg 87%
    12:00 +11°C° 0.1 mm 4 mps 759 mmHg 85%
    13:00 +11°C° 0.1 mm 4 mps 759 mmHg 83%
    14:00 +11°C° 0 mm 4 mps 759 mmHg 85%
    15:00 +10°C° 0 mm 4 mps 760 mmHg 86%
    16:00 +10°C° 0 mm 4 mps 760 mmHg 88%
    17:00 +10°C° 0 mm 4 mps 761 mmHg 89%
    18:00 +9°C° 0 mm 3 mps 761 mmHg 90%
    19:00 +9°C° 0 mm 3 mps 762 mmHg 90%
    20:00 +8°C° 0 mm 3 mps 762 mmHg 91%
    21:00 +8°C° 0 mm 2 mps 762 mmHg 92%
    22:00 +7°C° 0 mm 2 mps 763 mmHg 92%
    23:00 +7°C° 0 mm 2 mps 763 mmHg 92%

    17 December, Monday

    Time Temperature Precipitation Wind Pressure Humidity
    00:00 +7°C° 0 mm 2 mps 762 mmHg 91%
    01:00 +7°C° 0 mm 2 mps 762 mmHg 90%
    02:00 +7°C° 0 mm 2 mps 763 mmHg 88%
    03:00 +7°C° 0 mm 2 mps 763 mmHg 86%
    04:00 +7°C° 0 mm 2 mps 763 mmHg 84%
    05:00 +7°C° 0 mm 2 mps 763 mmHg 81%
    06:00 +7°C° 0 mm 2 mps 763 mmHg 79%
    07:00 +7°C° 0 mm 2 mps 763 mmHg 76%
    08:00 +9°C° 0 mm 2 mps 763 mmHg 69%
    09:00 +10°C° 0 mm 2 mps 763 mmHg 61%
    10:00 +12°C° 0 mm 1 mps 763 mmHg 53%
    11:00 +13°C° 0 mm 1 mps 763 mmHg 51%
    12:00 +13°C° 0 mm 1 mps 763 mmHg 48%
    13:00 +14°C° 0 mm 1 mps 762 mmHg 45%
    14:00 +13°C° 0 mm 1 mps 762 mmHg 50%
    15:00 +12°C° 0 mm 1 mps 762 mmHg 55%
    16:00 +12°C° 0 mm 1 mps 762 mmHg 59%
    17:00 +11°C° 0 mm 1 mps 762 mmHg 61%
    18:00 +10°C° 0 mm 2 mps 762 mmHg 62%
    19:00 +9°C° 0 mm 3 mps 762 mmHg 63%
    20:00 +9°C° 0.3 mm 3 mps 762 mmHg 65%
    21:00 +8°C° 0.3 mm 4 mps 762 mmHg 67%
    22:00 +8°C° 0.3 mm 4 mps 762 mmHg 69%
    23:00 +8°C° 1.2 mm 4 mps 761 mmHg 71%
    Show more